Tracking 31027 objects as of 19-Jul-2025
HD Live streaming from Space Station
objects crossing your sky now

FENGYUN 1C DEB

Track FENGYUN 1C DEB now!
10-day predictions


NORAD ID: 29835
Int'l Code: 1999-025ED
Perigee: 634.8 km
Apogee: 875.4 km
Inclination: 99.0 °
Period: 99.8 minutes
Semi major axis: 7126 km
RCS: 0.043 m2 (small)
Launch date: May 10, 1999
Source: People's Republic of China (PRC)
Launch site: Taiyaun Space Center, China (TSC)

Note: This is SATELLITE DEBRIS
Your satellite tracking list
ICEYE-X27
Track 1 satellite(s)




NASA's NSSDC Master Catalog

Two Line Element Set (TLE):
1 29835U 99025ED  25199.81470687  .00000272  00000-0  82010-4 0  9995
2 29835  99.0087 319.5859 0168767 112.6429  37.6971 14.43191468973757
Source of the keplerian elements: AFSPC